Location: Unspecified
(40.9447°N, 78.9903°W)
Time: 17:32:28
(UTC-05:00)

Cosmos 2058 - Visible Passes

Search period start: 18 January 2019 00:00
Search period end: 28 January 2019 00:00
Orbit: 562 x 585 km, 82.5° (Epoch: 17 January)

Date Brightness Start Highest point End Pass type
(mag) Time Alt. Az. Time Alt. Az. Time Alt. Az.
18 Jan 3.5 06:59:34 10° N 07:03:37 59° E 07:07:39 10° SSE visible
19 Jan 3.0 07:02:35 10° N 07:06:43 81° E 07:10:47 10° S visible
20 Jan 2.8 07:05:40 10° NNW 07:09:46 74° W 07:13:50 10° S visible
21 Jan 6.0 05:34:10 10° NE 05:35:31 11° ENE 05:36:53 10° E visible
21 Jan 5.1 19:32:10 10° S 19:33:04 16° S 19:33:04 16° S visible
22 Jan 5.8 05:36:19 10° NE 05:38:44 15° ENE 05:41:06 10° ESE visible
22 Jan 4.2 19:35:14 10° S 19:37:33 33° SSW 19:37:33 33° SSW visible
23 Jan 5.6 05:38:53 10° NNE 05:41:54 19° ENE 05:44:53 10° ESE visible
23 Jan 3.4 19:38:22 10° SSW 19:42:06 57° WSW 19:42:06 57° WSW visible
24 Jan 5.1 05:41:37 10° NNE 05:45:03 25° ENE 05:48:28 10° SE visible
24 Jan 4.6 18:07:02 10° ESE 18:09:04 13° E 18:10:22 12° ENE visible
24 Jan 4.0 19:41:35 10° SSW 19:45:33 44° WNW 19:46:40 35° NW visible
25 Jan 4.6 05:44:26 10° NNE 05:48:11 33° ENE 05:51:54 10° SE visible
25 Jan 4.3 18:09:15 10° SE 18:12:02 18° E 18:14:49 10° NE visible
25 Jan 4.6 19:44:55 10° SW 19:48:40 33° WNW 19:51:15 17° NNW visible
26 Jan 4.0 05:47:21 10° N 05:51:18 44° ENE 05:55:13 10° SSE visible
26 Jan 4.0 18:11:43 10° SE 18:15:00 23° E 18:18:16 10° NE visible
26 Jan 5.1 19:48:22 10° SW 19:51:48 25° WNW 19:55:15 10° NNW visible
27 Jan 3.4 05:50:20 10° N 05:54:24 60° E 05:58:26 10° SSE visible
27 Jan 3.7 18:14:22 10° SSE 18:17:59 30° E 18:21:37 10° NNE visible
27 Jan 5.5 19:51:57 10° WSW 19:54:57 19° WNW 19:57:58 10° NNW visible
